Temperature
16 16 16 17 17 17 18 20 20 19 18 18 18 18 16 15 15 13 10 11 11 12 12 12 12 12 13 13 13 13 14 14 14 14 14 14 14 14 14 14 14 14 14 14 14 14 14 14 14
16 16 16 17 17 18 18 19 18 18 17 17 17 17 16 13 12 11 10 10 11 11 12 12 12 12 12 13 13 13 13 13 13 14 14 14 14 14 14 14 14 14 14 14 14 14 14 14 14
16 16 16 17 18 18 18 18 17 17 17 17 16 14 14 12 11 10 10 10 10 11 11 12 12 12 12 12 12 13 13 13 13 13 13 13 13 14 14 13 13 13 13 13 14 14 14 14 14
15 16 17 17 17 17 18 17 16 16 16 16 15 13 11 10 9 9 10 10 10 10 11 11 11 12 12 12 12 12 12 12 13 13 13 13 13 13 13 13 13 13 13 13 13 14 14 14 14
15 16 17 16 16 17 17 16 17 16 16 15 14 13 10 9 9 9 9 9 10 10 10 11 11 11 11 12 12 12 12 12 12 12 12 13 13 13 13 13 13 13 13 13 13 13 14 14 14
16 17 16 16 16 16 16 16 16 15 15 14 13 12 10 9 9 9 9 9 9 9 10 10 10 11 11 11 11 11 11 11 12 12 12 12 12 12 12 12 13 13 13 13 13 13 13 13 13
15 15 16 16 16 15 15 15 15 14 13 13 12 12 9 8 8 8 8 8 9 9 9 10 10 10 10 11 11 11 11 11 11 11 11 12 12 12 12 12 12 12 13 13 13 13 13 13 13
14 15 16 16 15 14 14 14 13 13 11 11 11 10 8 7 8 8 8 8 8 8 9 9 9 10 10 10 10 10 10 10 11 11 11 11 11 11 11 12 11 12 12 12 12 13 13 13 13
14 14 14 14 14 13 12 12 11 11 10 9 9 8 7 7 7 8 8 8 8 8 8 9 9 9 9 9 9 9 10 10 10 10 10 11 10 11 11 11 11 11 12 12 12 12 12 12 12
13 12 12 12 13 12 11 11 10 10 9 8 8 7 7 7 7 7 7 7 7 7 8 8 8 8 9 9 9 9 9 9 9 10 10 10 10 10 10 10 11 11 11 11 11 11 12 12 12
11 11 11 11 11 11 10 10 10 10 9 8 7 7 6 6 6 6 6 6 6 6 7 7 7 8 8 8 8 8 8 8 9 9 9 9 9 9 9 10 10 10 10 11 11 11 11 11 11
10 10 10 9 9 9 9 9 9 8 8 8 7 7 6 6 5 5 6 5 6 6 6 7 7 7 7 7 8 8 8 8 8 8 8 8 9 9 9 9 9 9 10 10 10 10 10 10 10
9 9 9 8 8 8 8 8 8 7 7 7 6 6 6 5 5 5 5 5 5 5 6 6 6 6 7 7 7 7 7 7 7 7 7 8 8 8 8 8 8 8 9 9 9 9 9 10 10
9 9 8 8 8 8 7 7 7 6 6 6 6 5 5 5 4 4 4 4 5 5 5 5 6 6 6 6 6 6 6 7 7 7 7 7 7 7 7 7 8 8 8 8 8 8 9 9 9
8 8 8 8 8 8 7 6 6 6 6 6 5 5 5 4 4 4 4 4 4 4 4 5 5 5 5 5 6 6 6 6 6 6 6 6 6 7 7 7 7 7 7 7 8 8 8 8 8
9 8 8 8 8 7 7 6 7 6 6 5 5 5 5 4 4 3 3 3 4 4 4 4 4 5 5 5 5 5 5 5 5 5 6 6 6 6 6 6 6 6 7 7 7 7 7 7 8
8 8 8 8 8 8 7 6 6 6 6 5 5 5 4 4 3 3 3 3 3 3 3 4 4 4 4 4 4 5 5 5 5 5 5 5 5 5 5 5 6 6 6 6 6 6 6 7 7
8 8 9 8 8 7 6 6 6 6 6 5 5 5 4 4 3 3 3 3 3 3 3 3 3 3 3 4 4 4 4 4 4 4 4 5 5 5 5 5 5 5 5 5 5 5 6 6 6
8 8 8 8 7 7 6 6 6 6 5 5 5 4 4 3 3 3 2 2 2 2 2 2 3 3 3 3 3 3 4 3 4 4 4 4 4 4 4 4 4 4 5 5 5 5 5 5 5
7 7 7 7 7 6 6 6 6 5 5 4 4 4 3 3 3 2 2 2 2 2 2 2 2 2 2 2 2 2 3 3 3 3 3 3 3 3 3 3 4 4 4 4 4 4 4 4 5
6 6 6 5 5 6 5 5 5 5 4 4 4 3 3 3 2 2 2 1 1 1 1 1 1 2 2 2 2 2 2 2 2 2 3 3 3 3 3 3 3 3 3 3 3 3 3 4 4
5 5 5 5 4 4 5 4 5 4 3 3 3 3 2 2 2 2 1 1 1 1 1 1 1 1 1 1 1 1 1 1 1 1 2 2 2 2 2 2 2 3 3 3 3 3 3 3 3
4 4 4 4 4 3 4 4 4 3 3 2 2 2 2 2 2 1 1 1 1 1 1 1 1 1 1 1 1 1 1 1 1 1 1 1 1 2 2 2 2 2 2 2 2 2 2 2 3
4 4 4 4 3 3 4 4 3 3 3 2 2 2 2 2 1 1 1 1 1 1 1 1 0 1 1 0 0 0 0 0 0 0 1 1 1 1 1 1 1 1 2 2 2 2 2 2 2
3 3 3 3 3 4 4 3 3 3 2 2 1 2 1 1 1 1 0 0 0 0 0 0 0 0 0 -0 -0 -0 -0 -0 -0 -0 -0 0 0 0 0 0 1 1 1 1 1 1 1 2 2
3 3 3 3 4 4 3 2 3 2 2 1 1 1 1 1 0 0 0 0 -0 0 -0 -0 -0 -0 -0 -0 -0 -0 -1 -1 -1 -1 -1 -1 -0 -0 -0 -0 0 0 0 1 1 1 1 1 1
3 2 3 2 3 2 3 3 2 1 1 1 1 1 0 0 -0 -0 -0 -0 -0 -0 -0 -1 -1 -1 -1 -1 -1 -1 -1 -1 -1 -1 -1 -1 -1 -1 -1 -1 -0 -0 -0 0 0 0 0 0 1
1 2 1 2 2 3 4 3 3 1 -0 -0 -0 0 -0 -0 -0 -1 -1 -1 -1 -1 -1 -1 -1 -1 -1 -1 -1 -1 -1 -1 -1 -2 -1 -1 -2 -2 -1 -1 -1 -1 -1 -1 -1 -0 -0 -0 -0
0 1 1 2 2 2 2 3 2 1 0 -0 -0 -0 -0 -1 -1 -1 -1 -1 -1 -1 -2 -2 -2 -2 -2 -2 -2 -2 -2 -2 -2 -2 -2 -2 -2 -2 -2 -2 -2 -1 -1 -1 -1 -1 -1 -1 -1
1 1 1 1 1 1 1 1 1 0 0 0 -0 -0 -1 -1 -1 -1 -1 -2 -2 -2 -2 -2 -2 -2 -2 -2 -2 -2 -2 -3 -3 -3 -2 -2 -3 -2 -2 -2 -2 -2 -2 -2 -2 -2 -2 -1 -1
Wind_Speed
15 13 6 3 3 4 5 2 1 4 3 4 6 5 6 6 5 7 3 7 7 6 6 6 9 10 11 11 11 12 12 11 11 11 11 11 11 11 11 11 11 11 11 12 12 12 12 13 13
13 7 4 3 4 5 4 3 3 4 4 3 4 5 5 6 7 6 4 6 6 6 6 6 9 10 10 10 11 11 11 11 11 11 11 11 12 11 10 10 10 11 11 11 11 11 11 11 11
10 6 3 3 3 3 1 4 7 6 5 3 3 5 4 5 6 4 4 5 6 7 7 8 9 10 10 10 10 11 11 11 12 11 11 11 12 11 10 10 10 10 10 10 10 10 10 10 10
5 3 4 3 4 2 1 5 6 5 4 4 4 6 5 7 5 5 5 6 7 8 8 8 10 10 10 10 10 10 11 11 11 11 11 11 11 11 11 11 10 10 10 9 9 10 10 9 8
3 3 4 3 3 0 3 4 3 3 3 3 4 5 5 6 8 8 6 7 7 8 10 9 10 10 10 10 9 10 10 11 11 11 11 10 10 10 10 10 10 10 10 9 9 9 8 8 7
3 3 4 5 4 2 2 3 2 3 3 4 3 3 5 6 8 6 6 7 8 9 10 10 11 11 10 10 9 9 10 10 10 10 11 10 10 10 9 10 10 9 9 8 8 8 7 7 6
3 3 4 3 3 3 2 2 2 2 2 3 3 2 5 6 6 5 5 7 9 10 10 10 10 10 10 9 9 9 9 10 10 10 10 10 9 9 9 9 9 9 8 8 8 8 7 6 5
4 3 3 2 3 2 2 2 4 4 3 5 4 2 4 3 4 4 5 6 8 9 9 9 9 10 9 8 8 8 9 10 10 11 10 9 8 8 8 8 9 9 8 7 8 8 7 6 5
4 2 2 2 1 2 3 2 3 4 3 3 4 5 5 5 4 4 5 6 6 7 7 9 9 9 9 7 7 8 8 9 10 10 10 9 7 7 7 7 8 8 8 7 6 6 6 5 4
2 1 0 4 4 2 2 2 1 2 2 1 3 5 6 4 4 4 4 5 5 5 6 7 8 8 8 7 6 6 6 7 8 8 8 6 6 7 7 7 7 8 8 7 5 5 4 4 3
1 1 2 5 6 3 1 1 1 2 2 1 2 3 4 3 3 3 4 4 3 3 4 5 7 8 8 7 6 6 6 5 6 6 6 7 7 7 7 6 6 6 6 5 4 3 3 2 3
1 2 3 3 4 2 1 0 1 2 1 3 2 4 4 2 2 3 2 3 3 4 4 4 7 7 7 7 6 6 6 5 5 5 6 7 5 5 5 4 4 4 4 4 3 3 4 3 3
1 1 2 2 2 2 1 1 1 2 1 2 2 2 3 2 2 2 2 3 3 3 4 3 6 6 7 6 6 6 6 6 5 5 6 7 5 4 5 4 4 4 4 4 4 4 3 3 3
2 2 1 1 1 1 1 3 3 4 3 2 2 2 3 2 2 1 1 2 2 2 2 2 3 5 6 5 5 5 6 6 5 5 5 6 6 5 5 4 4 4 4 4 4 4 3 3 2
2 1 3 3 3 2 2 5 6 5 4 4 4 3 3 3 2 1 1 1 1 1 1 2 2 5 6 5 5 6 6 6 6 5 4 6 6 5 5 4 4 5 5 5 4 4 4 3 3
4 3 3 3 4 3 4 6 4 5 5 5 5 4 4 3 3 2 2 1 1 0 1 1 3 4 5 5 5 5 6 6 5 5 4 5 5 5 5 4 4 5 5 5 4 2 2 2 2
4 4 4 3 4 3 5 5 3 4 5 6 5 5 5 4 3 3 3 2 1 1 1 1 2 2 3 4 4 5 5 5 5 5 4 4 5 5 5 4 5 5 5 4 4 2 2 2 2
3 4 4 5 4 3 6 8 5 6 7 6 5 5 4 4 4 3 3 2 2 2 2 2 2 2 3 3 3 3 4 4 5 4 4 4 4 5 5 4 5 5 3 3 3 3 2 2 2
6 6 7 6 2 5 8 10 8 7 7 6 5 5 5 4 3 3 2 2 2 2 2 2 2 1 1 1 1 1 1 2 3 4 5 5 4 4 3 4 4 4 2 3 3 3 2 2 2
7 7 8 5 3 5 8 11 8 7 7 5 5 4 4 3 2 1 2 2 2 3 3 3 2 1 0 1 0 1 1 1 2 4 5 6 4 4 3 3 3 3 2 3 3 3 2 2 1
6 6 6 7 6 7 7 9 7 4 5 4 4 3 3 4 4 3 2 3 3 3 3 2 2 1 1 1 1 1 1 1 2 2 2 5 6 4 4 4 3 3 2 2 2 2 2 2 2
5 4 6 7 5 5 4 6 6 6 6 6 5 4 4 3 3 3 3 3 3 3 3 3 2 2 1 1 1 0 1 1 2 2 2 4 5 5 3 3 4 3 3 2 2 3 3 2 3
3 5 7 8 7 7 7 6 6 5 5 7 6 5 3 3 3 3 2 2 2 2 3 3 3 2 2 1 1 1 1 1 1 2 3 3 4 4 4 3 3 2 3 3 3 3 3 2 3
3 4 6 5 4 7 7 7 6 4 5 5 6 5 3 3 2 2 2 1 1 2 3 3 3 3 2 2 2 1 2 2 2 3 3 3 2 3 4 4 3 3 3 3 3 3 3 3 4
2 2 2 2 4 6 2 4 6 2 2 3 5 4 3 2 2 1 1 2 2 3 3 3 3 3 2 2 2 2 2 2 3 3 3 3 3 3 3 4 3 3 4 4 4 3 4 4 4
3 2 2 4 4 4 3 6 4 3 3 2 2 3 2 2 2 1 2 2 2 3 4 4 3 3 3 2 2 2 2 2 2 3 3 3 3 3 4 5 4 4 5 5 5 4 4 4 5
2 3 2 2 5 6 6 5 2 2 1 2 2 2 3 2 1 1 1 2 3 3 3 3 3 3 3 3 2 3 3 3 3 3 3 3 3 4 5 5 5 5 5 5 4 4 5 4 5
2 2 1 3 4 6 6 5 4 4 4 3 3 3 3 2 1 1 2 2 2 2 2 2 3 3 3 2 2 3 3 3 3 3 3 3 4 4 4 4 5 5 5 4 4 4 5 5 5
3 3 3 3 4 4 5 5 1 2 4 5 4 3 3 2 2 2 2 3 2 2 2 2 2 2 3 2 2 3 3 3 3 3 4 4 4 4 4 4 4 4 4 4 4 4 5 6 6
3 4 4 3 5 4 4 6 1 1 1 3 3 2 2 2 2 1 1 2 2 2 1 2 2 2 3 3 3 3 3 3 4 4 4 4 4 4 5 4 4 5 4 4 4 5 5 6 6
Wind_Direction
307 286 266 261 240 230 230 235 84 73 53 38 28 49 58 46 37 100 84 37 44 49 55 62 52 51 51 51 50 49 47 49 52 54 56 55 56 59 61 60 57 59 59 60 64 69 70 68 68
300 290 269 243 238 227 206 184 103 70 90 74 41 50 66 67 60 88 57 20 40 53 66 66 61 56 54 53 52 51 49 48 52 53 55 55 57 58 60 61 58 59 59 61 64 69 73 71 68
287 271 259 239 239 253 163 92 92 83 89 83 71 45 48 61 60 65 44 26 48 56 67 69 66 61 58 55 53 51 49 49 50 53 55 55 58 57 59 61 60 61 60 62 64 69 72 73 70
287 250 245 255 243 302 43 87 91 115 85 68 98 92 81 49 51 60 56 43 56 56 58 68 66 62 59 55 53 53 51 50 50 51 53 56 56 58 57 57 57 59 60 62 65 66 69 71 70
253 258 230 223 233 345 69 80 93 101 109 75 75 109 101 65 59 63 63 53 55 53 50 55 56 56 56 54 51 53 53 51 51 50 52 54 55 57 57 56 56 56 56 57 60 63 63 65 67
267 254 239 219 197 160 99 76 93 80 93 80 71 104 107 79 62 60 63 60 53 52 48 49 43 47 48 48 50 52 53 51 52 51 50 51 53 56 57 56 54 55 51 52 57 59 61 62 65
292 270 263 244 200 183 139 71 70 92 86 59 22 95 116 74 61 69 68 65 57 53 48 41 40 38 37 42 43 50 54 53 52 51 49 50 51 52 56 53 50 51 52 52 55 55 54 55 56
316 295 260 237 221 173 91 60 36 39 51 27 24 81 104 76 62 76 73 65 60 53 46 37 33 32 26 29 39 46 54 53 53 52 48 48 50 51 53 48 47 48 49 51 54 53 50 47 43
301 260 257 313 266 128 102 73 35 54 67 48 52 56 73 86 70 70 65 55 51 51 42 34 27 25 23 27 38 45 52 51 55 53 48 47 44 46 49 47 48 48 47 49 49 49 52 48 30
333 237 353 1 9 75 104 83 88 135 119 78 55 72 82 78 75 74 69 65 55 48 39 30 24 20 20 24 32 39 48 49 51 50 43 32 35 38 44 46 48 45 45 44 43 42 54 45 10
30 77 62 27 30 48 71 81 287 216 222 179 171 118 97 78 60 63 69 60 71 67 47 31 21 18 20 16 21 28 35 40 48 41 33 29 35 41 41 40 39 40 46 40 22 18 359 6 2
98 33 39 36 27 28 21 2 320 315 343 59 104 127 125 115 81 64 65 60 49 59 47 32 21 18 18 16 12 26 23 26 32 27 33 32 27 27 27 24 19 18 26 18 350 329 350 359 354
183 179 82 65 46 23 17 274 287 275 123 87 97 125 146 154 110 72 50 73 51 47 39 32 26 18 14 13 10 20 16 19 21 31 32 32 22 14 8 7 11 5 13 359 337 334 343 339 351
111 110 138 179 207 235 233 259 247 230 172 161 160 191 172 167 136 109 52 52 44 35 41 29 32 20 13 12 10 12 14 18 23 28 28 32 25 13 4 357 360 5 360 340 328 336 340 336 346
167 217 226 208 214 190 235 252 229 203 181 195 200 213 188 174 159 163 115 62 84 22 50 29 30 23 18 13 10 11 14 18 15 16 28 29 22 14 5 353 355 355 346 339 334 343 348 348 348
227 225 229 188 198 182 220 252 202 175 187 206 213 218 202 191 176 172 159 171 170 194 113 64 27 26 18 6 7 11 13 14 9 9 20 21 12 5 4 355 347 348 347 343 339 347 345 332 329
214 242 234 211 203 197 225 256 190 187 201 214 220 221 206 197 193 182 169 176 194 192 163 108 71 44 17 0 9 14 9 12 8 10 12 9 6 5 4 349 343 347 346 340 335 342 327 320 327
241 255 263 238 203 235 246 254 223 214 222 225 225 220 207 201 210 189 168 175 191 196 167 129 87 53 14 5 17 15 13 2 359 1 1 360 2 3 1 347 343 345 340 338 336 328 328 322 311
285 284 281 281 263 259 253 257 240 222 221 223 218 214 209 209 208 172 165 180 196 204 180 139 109 70 31 32 34 16 358 342 348 354 358 355 355 352 355 346 341 341 334 325 327 324 316 322 329
276 278 284 284 271 270 266 264 246 221 211 209 207 208 203 203 210 191 182 200 210 209 179 145 122 99 33 67 12 266 282 298 328 344 352 351 342 347 342 343 329 328 324 321 325 336 318 313 324
271 268 284 290 296 263 269 271 227 201 197 203 208 200 207 211 215 218 224 223 205 205 180 163 146 161 213 86 52 349 353 341 353 354 344 338 333 334 336 329 325 319 320 299 313 312 308 295 294
272 308 293 292 284 267 225 273 240 199 201 204 210 207 212 222 226 227 232 237 206 197 170 162 159 180 178 118 105 320 321 308 310 314 311 319 320 327 315 312 315 315 306 289 297 313 307 282 276
276 308 287 276 271 278 239 244 263 177 206 213 208 203 207 211 216 228 243 249 218 186 165 167 172 183 170 162 184 218 271 294 301 307 307 310 321 322 313 302 305 301 301 296 295 304 303 286 274
279 287 274 256 254 262 230 219 263 212 211 200 196 195 204 207 210 224 243 262 234 197 164 168 181 179 179 195 216 220 241 268 280 291 292 301 306 311 311 297 295 290 286 284 286 283 283 285 279
281 305 310 272 236 248 211 226 249 190 139 168 192 201 205 199 205 226 275 272 252 217 182 187 183 190 198 213 224 234 240 251 256 267 277 292 296 297 298 303 295 293 292 291 287 269 269 271 274
253 244 224 254 267 288 264 238 238 138 122 116 172 185 198 212 211 239 266 279 265 227 200 193 192 201 206 224 237 243 245 244 252 264 268 273 276 283 299 310 292 286 286 287 287 275 266 263 265
249 237 261 267 279 275 252 244 257 133 181 197 193 192 212 220 229 255 283 298 275 243 217 200 201 210 214 225 240 247 254 254 262 265 264 265 278 293 299 301 291 283 280 277 278 273 271 265 263
278 304 205 215 265 270 271 250 249 230 232 219 203 210 229 234 242 272 292 291 279 250 226 202 206 215 225 228 239 263 259 261 260 262 265 268 276 287 285 289 289 281 277 278 274 275 271 272 267
208 228 230 245 244 253 279 271 277 205 198 200 208 211 228 236 238 251 271 272 277 263 231 209 219 224 232 240 247 262 269 270 266 261 259 265 271 275 272 280 281 276 275 268 262 268 276 272 271
219 220 195 210 255 240 262 272 295 85 171 185 200 224 231 229 232 247 275 275 277 281 263 232 230 234 237 239 252 261 268 270 271 269 265 269 269 275 273 276 274 272 275 273 268 270 274 272 270
Height
1499 1500 1502 1505 1507 1507 1506 1500 1496 1500 1505 1509 1509 1510 1513 1519 1524 1535 1535 1532 1531 1530 1531 1532 1533 1533 1534 1534 1535 1535 1536 1536 1537 1537 1538 1538 1538 1539 1539 1540 1540 1540 1541 1541 1542 1542 1542 1543 1543
1499 1501 1504 1504 1506 1509 1505 1500 1502 1504 1508 1510 1511 1513 1516 1523 1527 1530 1531 1531 1531 1530 1531 1532 1532 1533 1534 1534 1535 1535 1536 1536 1537 1537 1538 1538 1539 1539 1540 1540 1540 1541 1541 1542 1543 1543 1543 1544 1544
1500 1502 1504 1502 1503 1505 1503 1501 1504 1507 1509 1511 1514 1517 1521 1527 1529 1530 1531 1530 1530 1530 1531 1531 1532 1533 1534 1534 1535 1535 1536 1536 1537 1537 1538 1538 1538 1539 1540 1540 1541 1541 1542 1542 1543 1544 1544 1545 1545
1502 1503 1503 1504 1504 1502 1501 1503 1505 1508 1510 1512 1515 1520 1525 1530 1530 1530 1530 1530 1530 1530 1531 1531 1532 1533 1533 1534 1535 1535 1536 1536 1537 1537 1537 1538 1538 1539 1540 1540 1541 1541 1542 1543 1543 1544 1544 1545 1546
1502 1502 1503 1505 1505 1504 1504 1505 1507 1508 1511 1514 1516 1521 1526 1529 1529 1529 1530 1530 1530 1530 1530 1531 1532 1533 1533 1534 1534 1535 1535 1536 1536 1537 1537 1538 1538 1539 1539 1540 1541 1541 1542 1542 1543 1544 1544 1545 1546
1503 1501 1503 1505 1504 1505 1506 1508 1509 1510 1513 1516 1518 1522 1527 1529 1528 1529 1529 1529 1530 1530 1530 1531 1531 1532 1533 1534 1534 1535 1535 1535 1536 1536 1537 1538 1538 1539 1539 1540 1540 1541 1542 1542 1543 1544 1544 1545 1546
1504 1501 1501 1500 1503 1506 1508 1509 1511 1513 1515 1518 1520 1523 1527 1528 1528 1529 1529 1530 1530 1530 1530 1530 1531 1532 1532 1533 1534 1534 1535 1535 1535 1536 1537 1537 1538 1538 1539 1539 1540 1540 1541 1542 1543 1543 1544 1545 1546
1502 1502 1499 1501 1503 1507 1510 1511 1514 1515 1518 1520 1521 1523 1526 1527 1527 1528 1529 1530 1529 1529 1529 1530 1530 1531 1532 1532 1533 1534 1534 1534 1535 1535 1536 1536 1537 1537 1538 1538 1539 1540 1540 1541 1542 1543 1544 1544 1545
1502 1505 1505 1505 1505 1509 1511 1513 1516 1518 1519 1521 1522 1524 1526 1526 1527 1528 1528 1529 1529 1529 1529 1529 1529 1530 1531 1531 1532 1533 1533 1533 1534 1534 1535 1535 1536 1536 1537 1537 1538 1539 1539 1540 1541 1542 1543 1544 1545
1504 1507 1510 1510 1508 1510 1512 1514 1517 1518 1520 1522 1523 1524 1525 1526 1526 1526 1527 1527 1527 1527 1528 1528 1528 1529 1529 1530 1531 1531 1532 1532 1532 1533 1534 1534 1534 1535 1535 1536 1537 1537 1538 1539 1540 1541 1541 1542 1543
1506 1510 1510 1511 1511 1512 1513 1516 1517 1518 1519 1521 1522 1523 1524 1525 1526 1526 1526 1527 1527 1527 1527 1528 1528 1528 1528 1528 1529 1530 1530 1531 1531 1532 1532 1533 1533 1533 1534 1534 1535 1536 1536 1537 1538 1539 1540 1541 1542
1509 1511 1512 1514 1514 1514 1515 1516 1517 1518 1519 1520 1521 1522 1523 1524 1524 1525 1525 1526 1527 1527 1527 1527 1527 1527 1527 1527 1528 1528 1529 1529 1530 1530 1531 1531 1531 1532 1532 1533 1534 1534 1535 1535 1536 1537 1538 1539 1540
1511 1513 1514 1515 1515 1516 1516 1517 1518 1518 1519 1519 1520 1521 1522 1523 1523 1524 1525 1525 1525 1525 1526 1526 1525 1525 1526 1526 1526 1527 1527 1528 1529 1529 1529 1530 1530 1530 1531 1531 1532 1533 1533 1534 1535 1536 1536 1537 1538
1511 1513 1514 1515 1515 1516 1517 1517 1517 1516 1517 1518 1519 1520 1520 1521 1522 1522 1523 1523 1523 1524 1524 1524 1524 1524 1524 1525 1525 1525 1526 1526 1527 1528 1528 1529 1529 1529 1529 1530 1530 1531 1531 1532 1533 1534 1535 1535 1536
1512 1513 1513 1513 1514 1515 1516 1516 1514 1513 1515 1516 1517 1518 1519 1519 1520 1520 1520 1521 1521 1522 1522 1522 1522 1523 1523 1523 1523 1524 1524 1525 1526 1526 1527 1527 1527 1527 1528 1528 1529 1529 1530 1530 1531 1532 1532 1533 1533
1511 1512 1512 1511 1511 1513 1517 1513 1511 1511 1513 1514 1515 1516 1516 1517 1518 1518 1519 1519 1519 1519 1520 1520 1521 1521 1521 1522 1522 1522 1523 1523 1524 1524 1525 1525 1525 1525 1526 1526 1526 1527 1527 1528 1529 1529 1530 1530 1531
1511 1511 1507 1510 1509 1509 1512 1510 1509 1510 1510 1511 1512 1513 1513 1513 1514 1516 1516 1517 1517 1517 1518 1518 1519 1519 1520 1520 1519 1520 1521 1521 1522 1522 1522 1523 1523 1523 1523 1524 1524 1525 1525 1526 1526 1527 1527 1527 1528
1511 1507 1504 1506 1507 1508 1509 1507 1506 1507 1508 1508 1509 1510 1510 1511 1511 1513 1514 1514 1514 1515 1515 1516 1516 1517 1518 1518 1517 1518 1519 1519 1519 1519 1520 1520 1521 1521 1521 1521 1522 1522 1523 1523 1523 1524 1525 1525 1525
1507 1506 1506 1504 1505 1507 1506 1504 1503 1503 1503 1504 1506 1506 1507 1508 1509 1510 1511 1511 1512 1512 1512 1513 1513 1514 1515 1514 1514 1515 1515 1516 1516 1517 1517 1518 1518 1518 1519 1519 1519 1520 1520 1520 1521 1521 1521 1522 1523
1507 1508 1507 1505 1505 1505 1503 1500 1498 1498 1499 1500 1502 1503 1504 1506 1507 1507 1508 1508 1509 1509 1509 1510 1510 1511 1512 1512 1513 1513 1513 1513 1514 1514 1514 1514 1515 1516 1516 1516 1516 1517 1517 1517 1518 1518 1519 1519 1520
1508 1509 1508 1508 1506 1503 1504 1499 1494 1494 1495 1497 1499 1500 1501 1503 1504 1505 1505 1505 1506 1506 1506 1507 1508 1509 1509 1509 1510 1511 1511 1511 1511 1511 1511 1511 1512 1513 1513 1513 1513 1514 1514 1514 1515 1515 1516 1516 1517
1509 1508 1508 1508 1509 1507 1503 1504 1491 1491 1493 1494 1495 1497 1498 1500 1501 1502 1502 1502 1502 1503 1503 1503 1505 1506 1506 1506 1507 1507 1507 1507 1508 1508 1508 1509 1509 1509 1510 1510 1510 1510 1511 1511 1512 1512 1513 1513 1514
1510 1509 1508 1507 1507 1508 1501 1503 1492 1489 1491 1491 1492 1494 1495 1497 1498 1498 1499 1499 1499 1500 1500 1500 1501 1502 1503 1504 1505 1505 1505 1505 1505 1506 1506 1506 1505 1506 1506 1507 1507 1507 1507 1508 1508 1509 1510 1510 1510
1510 1509 1506 1505 1507 1508 1495 1499 1491 1488 1486 1486 1489 1490 1492 1494 1495 1496 1497 1497 1497 1497 1496 1498 1498 1499 1500 1501 1502 1502 1502 1502 1502 1503 1502 1502 1502 1503 1503 1503 1503 1503 1504 1504 1504 1505 1505 1506 1506
1511 1512 1510 1507 1507 1497 1490 1494 1489 1484 1482 1484 1485 1487 1489 1491 1492 1493 1493 1493 1493 1493 1493 1494 1495 1496 1497 1498 1499 1499 1499 1499 1499 1499 1498 1498 1498 1498 1498 1499 1499 1499 1499 1500 1500 1500 1501 1501 1502
1511 1510 1513 1512 1502 1493 1494 1492 1484 1481 1481 1482 1483 1484 1486 1487 1488 1489 1489 1490 1490 1490 1490 1491 1492 1492 1494 1495 1495 1495 1495 1495 1495 1495 1495 1494 1494 1494 1494 1494 1495 1495 1495 1495 1495 1495 1496 1496 1497
1509 1509 1509 1511 1505 1504 1491 1482 1480 1480 1480 1481 1482 1483 1484 1485 1485 1486 1486 1486 1486 1486 1486 1487 1488 1489 1490 1491 1491 1491 1492 1492 1492 1492 1492 1491 1491 1490 1490 1490 1490 1490 1491 1491 1490 1490 1490 1491 1491
1511 1509 1512 1510 1507 1499 1485 1480 1480 1480 1480 1479 1480 1481 1481 1482 1482 1482 1483 1483 1484 1483 1483 1484 1484 1485 1486 1487 1487 1488 1488 1488 1488 1488 1487 1487 1487 1487 1486 1486 1486 1486 1486 1486 1485 1485 1486 1486 1486
1511 1511 1509 1506 1503 1502 1494 1485 1475 1475 1475 1476 1477 1478 1479 1479 1480 1480 1480 1481 1480 1479 1479 1479 1481 1481 1482 1483 1483 1483 1483 1483 1483 1483 1483 1483 1483 1482 1482 1482 1481 1481 1481 1481 1481 1481 1481 1481 1481
1505 1505 1507 1511 1505 1500 1498 1489 1475 1473 1473 1473 1475 1476 1476 1477 1477 1478 1477 1477 1476 1476 1476 1476 1477 1477 1478 1478 1478 1479 1479 1479 1479 1479 1478 1478 1478 1478 1477 1477 1477 1476 1476 1476 1476 1476 1476 1476 1476